[Date Prev][Date Next][Thread Prev][Thread Next][Date Index][Thread Index]

[jamsat-news:1183] jas2info #162



========================   最新情報   ==============================

        Last updated :Mon.22-Nov.-1999 14:30 (JST) #162

====================================================================
   
     衛星情報 FOシリーズの軌道要素、テレメトリ、QSOの状況等を
   まとめてみました.
         
 ■ 軌道要素1:「jamsat−keps:940」より 
              SB KEPS @ AMSAT  $ORB99323.N
       2Line Orbital Elements 99323.AMSAT

 HR AMSAT ORBITAL ELEMENTS FOR AMATEUR SATELLITES IN NASA FORMAT
 FROM WA5QGD FORT WORTH,TX November 19, 1999
 SEND SUBSCRIBE/UNSUBSCRIBE TO majordomo@amsat.org ONLY
 BID: ORB99323.N

 DECODE 2-LINE ELSETS WITH THE FOLLOWING KEY:
 1 AAAAAU 00  0  0 BBBBB.BBBBBBBB  .CCCCCCCC  00000-0  00000-0 0  DDDZ
 2 AAAAA EEE.EEEE FFF.FFFF GGGGGGG HHH.HHHH III.IIII JJ.JJJJJJJJKKKKKZ
 KEY: A-CATALOGNUM B-EPOCHTIME C-DECAY D-ELSETNUM E-INCLINATION F-RAAN
 G-ECCENTRICITY H-ARGPERIGEE I-MNANOM J-MNMOTION K-ORBITNUM Z-CHECKSUM

 TO ALL RADIO AMATEURS BT
 
  FO-29
  1 24278U 96046B   99321.83998123  .00000224  00000-0  26238-3 0 02956
  2 24278 098.5785 252.5718 0351783 056.5672 306.8589 13.52686726160580
 
 ■ 軌道要素2:「jamsat−keps:941」より
                         
         SB KEPS @ AMSAT  $ORB99323.O
         Orbital Elements  99323.OSCAR

 HR AMSAT ORBITAL ELEMENTS FOR OSCAR SATELLITES
 FROM WA5QGD FORT WORTH,TX November 19, 1999
 SEND SUBSCRIBE/UNSUBSCRIBE TO majordomo@amsat.org ONLY
 BID: ORB99323.O
 TO ALL RADIO AMATEURS BT

  Satellite: FO-29
 Catalog number: 24278
 Epoch time:      99321.83998123
 Element set:    0295
 Inclination:      098.5785 deg
 RA of node:       252.5718 deg
 Eccentricity:    0.0351783
 Arg of perigee:   056.5672 deg
 Mean anomaly:     306.8589 deg
 Mean motion:   13.52686726 rev/day
 Decay rate:       2.24e-06 rev/day^2
 Epoch rev:           16058
 Checksum:              370
-------------------  FO-29(JAS-2) QSOに関する情報  ------------------------
 ------------------------   FO-20(JAS-1b) -----------------------
-----------------------    FO-20(JAS-1b)道要素   -------------------------------
 
 ■ 軌道要素1 :出典はFO-29「ふじ3号」に同じ.
  
  FO-20
 1 20480U 90013C   99322.00601078 -.00000001  00000-0  66697-4 0 01952
 2 20480 099.0257 127.4599 0540903 175.8691 184.7149 12.83258595458068
 
 ■ 軌道要素2 :出典はFO-29「ふじ3号」に同じ.
               
  Satellite: FO-20
 Catalog number: 20480
 Epoch time:      99322.00601078
 Element set:    0195
 Inclination:      099.0257 deg
 RA of node:       127.4599 deg
 Eccentricity:    0.0540903
 Arg of perigee:   175.8691 deg
 Mean anomaly:     184.7149 deg
 Mean motion:   12.83258595 rev/day
 Decay rate:       -1.0e-08 rev/day^2
 Epoch rev:           45806
 Checksum:              324
  
 ==================================================================================

 5)JARL のホームページに運用予定が記載されていましたのでご紹介します.
       ( http://www.jarl.or.jp/Japanese/3_Fuji/uy.htm )

        ■ ふじ3号/FOー29/JAS-2 ■  
  
  *** 運用予定について ***
 
  11月11日 〜 11月23日     デジトーカ運用
  11月24日 〜 11月25日     アナログ系運用
  11月26日 〜 11月30日     デジトーカ運用 

 ※なお,運用予定は都合により変更することがありますのでご了承願います。

 JAS−2ベリカードを希望の方へ
  「受信レポート」と住所,氏名を記入して80円切手を貼った返信用封筒を下記のところにお送りください。
      〒170−8073 東京都豊島区巣鴨1−14−5
      (社)日本アマチュア無線連盟 技術研究所技術課
      「JASー2ベリカード希望」と記入してください。
  「受信レポート」の記入例
   1.日時 2.場所 3.受信強度 4.送信内容 5.使用した機種名 6.アンテナ 7.その他(:ご意見等)
 注)6.アンテナは「型番」ではなく,型式を記入してください。例:「何エレの八木アンテナ」,「何段のGPアンテナ」・・・。
   7.ご意見,ご感想等お書きください。
   受信レポートの書式はA4版の用紙に記入してください。

  デジトーカの周波数は435.91MHzです。ハンディー機での受信も可能ですので是非トライしてください。

   ※受信方法はJARLNEWS9月号で紹介しています。

   デジトーカを受信して JAS−2ベリカード をもらおう!!

         ■ ふじ2号/FO−20/JAS-1b ■      
            
          「ふじ2号」 現況                                                                                  
             
   JAS-1b/FO-20(ふじ2号)の不具合発生について
    JAS-1b(ふじ2号)のCWテレメトリ信号に,1997年10月12日12時
 (JST)の日本上空通過時,3桁の数字が繰り返されるはずが3個の長音の
  繰り返しとなっているという異常が発見されました。この不具合は次の通過時
  からは回復していましたが13日15時20分の通過時に再び観測されました。
  衛星のアナログ系中継モード動作は異常が無く,正常時のテレメトリ内容からは
  衛星の動作に異常は認められません。従って,直ちに衛星のミッションに影響す
  ることは無いと予想されますので,当面はアナログ系中継モードを継続します。
  衛星は既に打ち上げてから7年8ヶ月を経ておりますので,今後は監視を強化す
  る予定です。アマチュア各位のレポートをお待ちします.   
  
  以上  http://www.jarl.or.jp/Japanese/3_Fuji/fuji.htm
                                           
   =============   JAS-2 (ふじ3号)と現在までの情報   ===========
  
  A.電話によるふじ3号の運用情報
      社団法人日本アマチュア連盟によるサービス
           TEL .   03− 3942 − 1000
  B.アマチュア無線FAXサービス
      JARLによるふじ3号の軌道情報(オービットカレンダー)
         FAX No.  03− 3233 −0055
  C.WWWブラウザで情報を簡単に見れる人のためにJAS−2
     ふじ3号の衛星としての運用されるまでの名前)の概要、打ち上げ
     までの状況、運用中における状況を説明したホームページを紹介し
     ておきます.
     社団法人日本アマチュア無線連盟(JARL)のホームページ

          http://www.jarl.or.jp/Japanese/3_Fuji
 
     宇宙開発事業団(NASDA)ホームページ 
          http://www.nasda.go.jp/
         打上げ衛星 :地球観測プラットフォーム技術衛星(ADEOS) 
                       アマチュア衛星3号(JAS-2)
          http://yyy.tksc.nasda.go.jp/Home/Press/Press-j/jas-2_j.html        

  D.JAMSATによる軌道情報の活用
        JAMSATのホームページまたはjamsat−kepsの軌道要素より
      衛星の軌道情報を得る.
     JAMSATホームページ
               URL    http://www.jamsat.or.jp
       上記ホームページでは各地で行われるアマチュア通信衛星に関する
      ミューティングのお知らせや世界のアマチュア衛星に関する情報が
      満載されています.
   
 =========================================================================
       JAMSATのメンバーのご協力によりJH6MME(高山 秀造)が
    執筆・編集を担当しております.ご指摘の意見、疑問やこのようにしたら
    というアイデアがありましたら小さなことでもかまいませんので気軽に下
    記アドレスまでご連絡ください.jamsat−newsからjas2
    infoへの転載をJH4PHW局坂井さんに担当して頂いております.
                    E-mail : jh6mme@jamsat.or.jp : jh4phw@jamsat.or.jp
 ===============================   END  ===============================